QPF
0.00 0.00 0.00 0.00 0.00 0.00 0.00 0.00 0.00 0.00 0.00 0.00 0.02 0.03 0.03 0.05 0.07 0.08 0.04 0.04 0.04 0.06 0.09 0.05 0.04 0.03 0.02 0.02 0.02 0.02 0.02 0.02 0.03 0.02 0.03 0.04 0.05 0.05 0.06 0.07 0.08 0.11 0.12 0.12
0.00 0.00 0.00 0.00 0.00 0.00 0.00 0.00 0.00 0.00 0.00 0.00 0.00 0.01 0.03 0.06 0.06 0.06 0.04 0.04 0.04 0.03 0.03 0.03 0.03 0.02 0.02 0.02 0.02 0.01 0.02 0.02 0.03 0.03 0.03 0.04 0.04 0.05 0.06 0.07 0.08 0.10 0.11 0.11
0.00 0.00 0.00 0.00 0.00 0.00 0.00 0.00 0.00 0.00 0.00 0.00 0.02 0.03 0.07 0.10 0.07 0.07 0.05 0.04 0.04 0.04 0.04 0.04 0.03 0.02 0.02 0.02 0.03 0.03 0.02 0.02 0.04 0.03 0.03 0.03 0.05 0.06 0.07 0.07 0.07 0.07 0.08 0.09
0.00 0.00 0.00 0.00 0.00 0.00 0.00 0.00 0.00 0.00 0.00 0.01 0.04 0.05 0.06 0.10 0.11 0.11 0.09 0.11 0.07 0.05 0.04 0.03 0.02 0.02 0.02 0.02 0.03 0.03 0.03 0.04 0.04 0.04 0.03 0.03 0.04 0.07 0.09 0.08 0.06 0.05 0.05 0.06
0.00 0.00 0.00 0.00 0.00 0.00 0.00 0.00 0.00 0.00 0.00 0.01 0.02 0.02 0.04 0.04 0.08 0.09 0.07 0.09 0.09 0.08 0.05 0.04 0.04 0.04 0.03 0.02 0.02 0.03 0.04 0.04 0.03 0.04 0.04 0.04 0.03 0.05 0.07 0.09 0.09 0.08 0.07 0.07
0.00 0.00 0.00 0.00 0.00 0.01 0.01 0.02 0.01 0.01 0.01 0.01 0.04 0.04 0.04 0.05 0.07 0.07 0.08 0.10 0.08 0.06 0.05 0.05 0.04 0.04 0.03 0.03 0.04 0.04 0.04 0.04 0.05 0.05 0.05 0.05 0.05 0.04 0.06 0.08 0.10 0.11 0.11 0.11
0.00 0.00 0.00 0.00 0.00 0.01 0.02 0.03 0.02 0.01 0.02 0.01 0.02 0.03 0.03 0.04 0.06 0.08 0.13 0.13 0.09 0.07 0.06 0.06 0.05 0.04 0.03 0.03 0.03 0.03 0.03 0.03 0.04 0.05 0.05 0.05 0.05 0.06 0.06 0.07 0.08 0.10 0.11 0.11
0.00 0.00 0.01 0.00 0.00 0.01 0.02 0.02 0.03 0.02 0.03 0.02 0.02 0.04 0.05 0.04 0.05 0.07 0.07 0.08 0.11 0.11 0.09 0.06 0.04 0.03 0.03 0.02 0.03 0.03 0.04 0.04 0.05 0.06 0.07 0.07 0.06 0.05 0.04 0.04 0.05 0.08 0.09 0.11
0.01 0.01 0.01 0.01 0.01 0.01 0.02 0.02 0.03 0.03 0.03 0.02 0.02 0.02 0.05 0.05 0.05 0.07 0.06 0.07 0.08 0.10 0.09 0.06 0.04 0.03 0.03 0.02 0.02 0.02 0.03 0.04 0.05 0.07 0.07 0.08 0.08 0.07 0.06 0.05 0.06 0.07 0.10 0.12
0.04 0.06 0.03 0.02 0.03 0.04 0.04 0.03 0.03 0.02 0.02 0.03 0.03 0.04 0.05 0.07 0.08 0.11 0.11 0.10 0.09 0.09 0.07 0.05 0.04 0.04 0.04 0.03 0.01 0.01 0.02 0.03 0.04 0.05 0.04 0.05 0.05 0.05 0.05 0.05 0.06 0.07 0.09 0.11
0.07 0.08 0.07 0.05 0.04 0.04 0.05 0.05 0.04 0.03 0.02 0.02 0.03 0.04 0.07 0.13 0.17 0.13 0.09 0.08 0.08 0.07 0.06 0.05 0.05 0.04 0.04 0.03 0.02 0.02 0.02 0.02 0.02 0.03 0.03 0.04 0.03 0.03 0.04 0.04 0.06 0.07 0.08 0.10
0.08 0.09 0.09 0.08 0.06 0.05 0.07 0.09 0.08 0.05 0.04 0.03 0.04 0.04 0.05 0.10 0.16 0.15 0.12 0.09 0.06 0.05 0.05 0.06 0.06 0.05 0.04 0.04 0.03 0.02 0.02 0.02 0.03 0.03 0.04 0.04 0.03 0.03 0.04 0.04 0.05 0.05 0.06 0.06
0.06 0.08 0.08 0.08 0.08 0.06 0.06 0.09 0.10 0.09 0.06 0.06 0.06 0.04 0.03 0.03 0.04 0.05 0.06 0.08 0.08 0.05 0.05 0.05 0.05 0.05 0.04 0.04 0.05 0.05 0.04 0.03 0.03 0.04 0.04 0.04 0.03 0.03 0.04 0.05 0.06 0.07 0.07 0.07
0.03 0.05 0.07 0.06 0.06 0.06 0.06 0.07 0.06 0.06 0.06 0.04 0.04 0.03 0.02 0.02 0.04 0.05 0.04 0.03 0.03 0.04 0.04 0.04 0.04 0.05 0.05 0.06 0.07 0.05 0.04 0.05 0.05 0.05 0.06 0.05 0.05 0.05 0.04 0.05 0.05 0.06 0.06 0.05
0.03 0.02 0.04 0.07 0.06 0.05 0.05 0.04 0.04 0.03 0.04 0.03 0.03 0.02 0.02 0.02 0.02 0.02 0.02 0.02 0.02 0.02 0.03 0.03 0.04 0.04 0.03 0.04 0.05 0.05 0.04 0.06 0.07 0.07 0.06 0.05 0.04 0.04 0.03 0.03 0.03 0.03 0.02 0.03
0.03 0.04 0.05 0.06 0.06 0.05 0.04 0.05 0.05 0.03 0.02 0.02 0.02 0.02 0.02 0.02 0.01 0.01 0.01 0.01 0.01 0.02 0.02 0.02 0.02 0.03 0.03 0.03 0.04 0.04 0.05 0.07 0.07 0.06 0.05 0.04 0.04 0.05 0.04 0.04 0.03 0.03 0.02 0.02
0.03 0.04 0.06 0.07 0.07 0.06 0.05 0.05 0.05 0.03 0.01 0.01 0.01 0.01 0.01 0.02 0.02 0.01 0.01 0.01 0.01 0.01 0.01 0.01 0.01 0.02 0.03 0.04 0.04 0.04 0.05 0.05 0.05 0.05 0.04 0.05 0.04 0.04 0.04 0.04 0.04 0.04 0.03 0.04
0.01 0.02 0.02 0.03 0.04 0.04 0.03 0.04 0.04 0.02 0.01 0.01 0.01 0.01 0.01 0.01 0.01 0.01 0.01 0.01 0.01 0.01 0.01 0.01 0.02 0.02 0.02 0.03 0.03 0.03 0.03 0.03 0.03 0.04 0.05 0.06 0.07 0.07 0.07 0.07 0.06 0.05 0.04 0.04
0.01 0.01 0.02 0.02 0.03 0.02 0.02 0.03 0.02 0.02 0.02 0.02 0.02 0.01 0.01 0.01 0.01 0.01 0.01 0.01 0.02 0.02 0.02 0.02 0.02 0.02 0.02 0.02 0.02 0.02 0.02 0.03 0.03 0.03 0.04 0.06 0.07 0.07 0.09 0.09 0.09 0.09 0.08 0.06
0.01 0.01 0.02 0.03 0.03 0.02 0.02 0.02 0.02 0.01 0.01 0.01 0.01 0.01 0.01 0.01 0.01 0.02 0.02 0.02 0.02 0.02 0.02 0.02 0.01 0.01 0.01 0.01 0.02 0.02 0.02 0.03 0.03 0.04 0.04 0.04 0.04 0.05 0.06 0.06 0.07 0.07 0.07 0.06
0.03 0.03 0.04 0.04 0.03 0.02 0.02 0.02 0.02 0.01 0.01 0.01 0.01 0.02 0.01 0.02 0.02 0.02 0.02 0.02 0.02 0.01 0.01 0.01 0.01 0.01 0.01 0.01 0.01 0.02 0.02 0.02 0.02 0.02 0.02 0.02 0.03 0.04 0.05 0.05 0.05 0.05 0.04 0.03
0.05 0.05 0.04 0.04 0.03 0.02 0.02 0.02 0.02 0.02 0.02 0.02 0.03 0.03 0.03 0.03 0.02 0.02 0.02 0.02 0.02 0.03 0.01 0.01 0.01 0.01 0.01 0.01 0.01 0.01 0.01 0.02 0.02 0.02 0.02 0.02 0.03 0.03 0.03 0.03 0.03 0.03 0.02 0.02
0.05 0.05 0.04 0.03 0.03 0.03 0.02 0.02 0.02 0.02 0.02 0.02 0.03 0.04 0.03 0.03 0.03 0.03 0.03 0.02 0.02 0.03 0.02 0.01 0.02 0.02 0.02 0.01 0.01 0.01 0.01 0.01 0.01 0.01 0.01 0.01 0.01 0.01 0.01 0.01 0.01 0.01 0.01 0.01
0.06 0.05 0.04 0.03 0.03 0.04 0.03 0.03 0.03 0.03 0.03 0.03 0.03 0.04 0.05 0.06 0.05 0.04 0.03 0.02 0.03 0.02 0.02 0.03 0.03 0.02 0.02 0.02 0.01 0.01 0.01 0.01 0.01 0.01 0.00 0.00 0.00 0.00 0.00 0.00 0.00 0.00 0.00 0.00
0.06 0.06 0.05 0.05 0.04 0.04 0.04 0.04 0.04 0.04 0.04 0.04 0.04 0.04 0.04 0.05 0.05 0.04 0.03 0.02 0.02 0.01 0.01 0.01 0.02 0.01 0.01 0.01 0.01 0.01 0.00 0.00 0.00 0.00 0.00 0.00 0.00 0.00 0.00 0.00 0.00 0.00 0.00 0.00
0.09 0.08 0.07 0.06 0.06 0.05 0.04 0.04 0.05 0.05 0.06 0.05 0.05 0.04 0.04 0.03 0.03 0.02 0.02 0.01 0.01 0.01 0.01 0.01 0.01 0.01 0.00 0.00 0.00 0.00 0.00 0.00 0.00 0.00 0.00 0.00 0.00 0.00 0.00 0.00 0.00 0.00 0.00 0.00
0.09 0.08 0.07 0.06 0.05 0.04 0.04 0.04 0.05 0.05 0.05 0.04 0.03 0.03 0.04 0.03 0.03 0.02 0.02 0.02 0.01 0.01 0.01 0.01 0.01 0.01 0.00 0.00 0.00 0.00 0.00 0.00 0.00 0.00 0.00 0.00 0.00 0.00 0.00 0.00 0.00 0.00 0.00 0.00
MSLP
1010.22 1010.59 1010.94 1011.26 1011.53 1011.73 1011.85 1011.86 1011.75 1011.54 1011.23 1010.88 1010.53 1010.22 1010.00 1009.89 1009.91 1010.03 1010.23 1010.48 1010.73 1010.96 1011.15 1011.30 1011.42 1011.53 1011.65 1011.81 1012.00 1012.23 1012.49 1012.75 1012.99 1013.19 1013.35 1013.46 1013.53 1013.58 1013.63 1013.70 1013.81 1013.96 1014.17 1014.45
1010.39 1010.69 1010.87 1010.95 1010.94 1010.87 1010.74 1010.58 1010.40 1010.21 1010.03 1009.89 1009.79 1009.74 1009.75 1009.82 1009.93 1010.07 1010.22 1010.37 1010.49 1010.60 1010.70 1010.79 1010.90 1011.05 1011.23 1011.47 1011.74 1012.04 1012.34 1012.63 1012.88 1013.09 1013.24 1013.35 1013.43 1013.50 1013.57 1013.66 1013.79 1013.97 1014.20 1014.48
1010.66 1010.86 1010.88 1010.74 1010.49 1010.16 1009.83 1009.51 1009.25 1009.08 1009.00 1009.02 1009.12 1009.28 1009.48 1009.69 1009.89 1010.05 1010.17 1010.24 1010.27 1010.30 1010.32 1010.38 1010.49 1010.66 1010.90 1011.19 1011.53 1011.87 1012.22 1012.52 1012.79 1013.00 1013.16 1013.28 1013.39 1013.49 1013.61 1013.75 1013.93 1014.15 1014.41 1014.72
1010.98 1011.07 1010.93 1010.61 1010.15 1009.63 1009.12 1008.68 1008.36 1008.20 1008.19 1008.32 1008.57 1008.89 1009.24 1009.56 1009.83 1010.02 1010.13 1010.16 1010.15 1010.13 1010.12 1010.17 1010.28 1010.47 1010.75 1011.08 1011.44 1011.81 1012.16 1012.47 1012.73 1012.94 1013.12 1013.27 1013.41 1013.56 1013.75 1013.96 1014.20 1014.49 1014.80 1015.14
1011.26 1011.24 1010.98 1010.51 1009.91 1009.25 1008.62 1008.10 1007.74 1007.58 1007.61 1007.83 1008.18 1008.60 1009.05 1009.46 1009.79 1010.03 1010.16 1010.20 1010.19 1010.16 1010.16 1010.21 1010.33 1010.54 1010.83 1011.16 1011.52 1011.88 1012.21 1012.50 1012.75 1012.95 1013.13 1013.31 1013.50 1013.72 1013.98 1014.27 1014.60 1014.95 1015.32 1015.70
1011.42 1011.30 1010.94 1010.38 1009.70 1008.97 1008.29 1007.74 1007.37 1007.21 1007.28 1007.54 1007.95 1008.44 1008.95 1009.43 1009.82 1010.11 1010.29 1010.37 1010.40 1010.40 1010.43 1010.51 1010.65 1010.86 1011.13 1011.45 1011.77 1012.09 1012.37 1012.62 1012.84 1013.03 1013.22 1013.42 1013.66 1013.95 1014.28 1014.66 1015.07 1015.49 1015.92 1016.34
1011.39 1011.19 1010.77 1010.19 1009.49 1008.77 1008.10 1007.56 1007.22 1007.09 1007.18 1007.46 1007.90 1008.43 1008.98 1009.50 1009.94 1010.28 1010.52 1010.67 1010.76 1010.83 1010.90 1011.01 1011.17 1011.37 1011.62 1011.89 1012.15 1012.40 1012.63 1012.82 1012.99 1013.17 1013.36 1013.59 1013.88 1014.23 1014.64 1015.09 1015.58 1016.07 1016.55 1017.00
1011.16 1010.90 1010.47 1009.91 1009.27 1008.62 1008.03 1007.57 1007.28 1007.19 1007.30 1007.60 1008.04 1008.57 1009.13 1009.67 1010.15 1010.55 1010.85 1011.07 1011.24 1011.37 1011.50 1011.64 1011.80 1011.99 1012.19 1012.40 1012.59 1012.77 1012.92 1013.06 1013.19 1013.35 1013.55 1013.81 1014.14 1014.55 1015.02 1015.53 1016.08 1016.62 1017.14 1017.63
1010.74 1010.46 1010.07 1009.59 1009.07 1008.55 1008.08 1007.73 1007.53 1007.50 1007.64 1007.95 1008.37 1008.88 1009.43 1009.96 1010.45 1010.88 1011.23 1011.52 1011.75 1011.95 1012.12 1012.28 1012.44 1012.60 1012.75 1012.89 1013.01 1013.11 1013.20 1013.29 1013.40 1013.55 1013.76 1014.05 1014.43 1014.88 1015.39 1015.96 1016.54 1017.12 1017.67 1018.18
1010.18 1009.93 1009.62 1009.27 1008.90 1008.55 1008.26 1008.06 1007.96 1008.00 1008.18 1008.47 1008.87 1009.34 1009.84 1010.35 1010.83 1011.27 1011.65 1011.98 1012.26 1012.49 1012.69 1012.86 1013.01 1013.13 1013.23 1013.30 1013.35 1013.39 1013.43 1013.49 1013.59 1013.75 1013.98 1014.30 1014.71 1015.20 1015.76 1016.35 1016.96 1017.56 1018.13 1018.65
1009.59 1009.39 1009.19 1008.99 1008.81 1008.66 1008.55 1008.51 1008.53 1008.65 1008.85 1009.14 1009.50 1009.91 1010.35 1010.81 1011.26 1011.68 1012.07 1012.41 1012.71 1012.96 1013.17 1013.33 1013.45 1013.53 1013.58 1013.59 1013.59 1013.59 1013.60 1013.65 1013.75 1013.93 1014.19 1014.55 1015.00 1015.52 1016.11 1016.72 1017.34 1017.94 1018.52 1019.05
1009.02 1008.89 1008.82 1008.79 1008.80 1008.84 1008.92 1009.03 1009.18 1009.38 1009.61 1009.89 1010.21 1010.56 1010.94 1011.33 1011.73 1012.11 1012.48 1012.81 1013.10 1013.35 1013.54 1013.68 1013.77 1013.81 1013.81 1013.78 1013.74 1013.71 1013.71 1013.76 1013.89 1014.10 1014.41 1014.81 1015.29 1015.84 1016.44 1017.06 1017.68 1018.28 1018.85 1019.39
1008.51 1008.47 1008.52 1008.64 1008.83 1009.06 1009.31 1009.57 1009.83 1010.10 1010.36 1010.64 1010.92 1011.23 1011.54 1011.87 1012.21 1012.55 1012.88 1013.19 1013.46 1013.68 1013.85 1013.96 1014.01 1014.01 1013.97 1013.91 1013.84 1013.80 1013.81 1013.88 1014.04 1014.29 1014.64 1015.08 1015.59 1016.17 1016.77 1017.39 1018.01 1018.60 1019.16 1019.69
1008.08 1008.10 1008.26 1008.51 1008.85 1009.23 1009.63 1010.02 1010.39 1010.73 1011.04 1011.32 1011.59 1011.86 1012.13 1012.41 1012.71 1013.00 1013.30 1013.57 1013.81 1014.01 1014.15 1014.22 1014.24 1014.20 1014.13 1014.04 1013.97 1013.93 1013.95 1014.05 1014.24 1014.53 1014.91 1015.38 1015.92 1016.51 1017.11 1017.73 1018.33 1018.91 1019.46 1019.97
1007.68 1007.76 1007.99 1008.34 1008.79 1009.30 1009.82 1010.32 1010.79 1011.21 1011.57 1011.88 1012.16 1012.42 1012.67 1012.93 1013.19 1013.46 1013.72 1013.97 1014.19 1014.36 1014.47 1014.52 1014.51 1014.44 1014.35 1014.25 1014.17 1014.13 1014.17 1014.29 1014.51 1014.83 1015.23 1015.73 1016.27 1016.86 1017.47 1018.07 1018.65 1019.21 1019.74 1020.24
1007.29 1007.39 1007.67 1008.09 1008.63 1009.22 1009.84 1010.44 1011.00 1011.50 1011.92 1012.29 1012.60 1012.88 1013.14 1013.40 1013.65 1013.91 1014.17 1014.40 1014.60 1014.75 1014.85 1014.88 1014.85 1014.78 1014.67 1014.57 1014.48 1014.46 1014.50 1014.63 1014.87 1015.20 1015.61 1016.11 1016.65 1017.23 1017.82 1018.40 1018.96 1019.50 1020.00 1020.48
1006.89 1007.01 1007.31 1007.77 1008.35 1009.02 1009.71 1010.40 1011.04 1011.61 1012.12 1012.55 1012.91 1013.24 1013.53 1013.81 1014.08 1014.35 1014.61 1014.84 1015.03 1015.18 1015.27 1015.30 1015.27 1015.20 1015.10 1014.99 1014.92 1014.89 1014.94 1015.08 1015.31 1015.63 1016.04 1016.51 1017.04 1017.59 1018.15 1018.70 1019.23 1019.74 1020.22 1020.67
1006.52 1006.63 1006.94 1007.42 1008.03 1008.74 1009.50 1010.25 1010.96 1011.62 1012.20 1012.70 1013.14 1013.51 1013.86 1014.17 1014.47 1014.75 1015.02 1015.26 1015.46 1015.62 1015.71 1015.75 1015.74 1015.67 1015.59 1015.50 1015.43 1015.41 1015.46 1015.59 1015.80 1016.10 1016.48 1016.92 1017.40 1017.91 1018.43 1018.95 1019.44 1019.92 1020.36 1020.78
1006.24 1006.35 1006.66 1007.15 1007.78 1008.52 1009.31 1010.11 1010.89 1011.60 1012.25 1012.82 1013.31 1013.74 1014.12 1014.47 1014.79 1015.09 1015.37 1015.62 1015.83 1016.00 1016.12 1016.18 1016.18 1016.15 1016.09 1016.02 1015.97 1015.96 1016.00 1016.11 1016.30 1016.56 1016.89 1017.28 1017.71 1018.17 1018.63 1019.10 1019.55 1019.99 1020.40 1020.78
1006.17 1006.29 1006.59 1007.08 1007.72 1008.47 1009.28 1010.11 1010.91 1011.67 1012.36 1012.96 1013.49 1013.95 1014.35 1014.72 1015.04 1015.35 1015.63 1015.88 1016.10 1016.28 1016.42 1016.51 1016.55 1016.55 1016.52 1016.49 1016.46 1016.46 1016.49 1016.58 1016.74 1016.95 1017.23 1017.55 1017.92 1018.31 1018.72 1019.13 1019.54 1019.93 1020.31 1020.65
1006.41 1006.53 1006.85 1007.33 1007.96 1008.70 1009.51 1010.33 1011.13 1011.89 1012.58 1013.19 1013.71 1014.17 1014.56 1014.91 1015.22 1015.50 1015.76 1016.00 1016.22 1016.41 1016.57 1016.69 1016.77 1016.82 1016.83 1016.83 1016.83 1016.84 1016.87 1016.95 1017.06 1017.23 1017.44 1017.70 1018.00 1018.32 1018.67 1019.02 1019.38 1019.73 1020.07 1020.38
1007.01 1007.16 1007.48 1007.95 1008.56 1009.26 1010.03 1010.81 1011.57 1012.29 1012.94 1013.50 1013.99 1014.39 1014.74 1015.03 1015.30 1015.54 1015.76 1015.98 1016.19 1016.38 1016.55 1016.70 1016.82 1016.91 1016.97 1017.01 1017.04 1017.06 1017.09 1017.15 1017.23 1017.34 1017.49 1017.69 1017.91 1018.17 1018.45 1018.75 1019.06 1019.37 1019.68 1019.97
1007.98 1008.15 1008.47 1008.92 1009.48 1010.13 1010.82 1011.53 1012.21 1012.84 1013.40 1013.89 1014.28 1014.61 1014.87 1015.09 1015.28 1015.46 1015.63 1015.81 1016.00 1016.18 1016.36 1016.53 1016.69 1016.81 1016.92 1016.99 1017.05 1017.09 1017.12 1017.15 1017.20 1017.27 1017.36 1017.49 1017.65 1017.85 1018.07 1018.32 1018.59 1018.87 1019.15 1019.41
1009.24 1009.43 1009.73 1010.14 1010.64 1011.20 1011.79 1012.39 1012.96 1013.47 1013.92 1014.28 1014.57 1014.79 1014.95 1015.08 1015.18 1015.28 1015.40 1015.53 1015.68 1015.85 1016.03 1016.22 1016.39 1016.55 1016.69 1016.79 1016.86 1016.91 1016.94 1016.95 1016.96 1016.99 1017.03 1017.10 1017.21 1017.35 1017.53 1017.74 1017.97 1018.22 1018.48 1018.74
1010.66 1010.85 1011.12 1011.47 1011.88 1012.34 1012.81 1013.27 1013.71 1014.08 1014.39 1014.63 1014.80 1014.90 1014.95 1014.98 1015.00 1015.03 1015.08 1015.16 1015.28 1015.44 1015.61 1015.80 1015.99 1016.16 1016.31 1016.43 1016.51 1016.55 1016.57 1016.56 1016.54 1016.52 1016.52 1016.54 1016.60 1016.70 1016.84 1017.01 1017.22 1017.46 1017.70 1017.96
1012.06 1012.22 1012.45 1012.72 1013.03 1013.37 1013.72 1014.04 1014.34 1014.58 1014.76 1014.87 1014.92 1014.91 1014.87 1014.82 1014.76 1014.73 1014.73 1014.77 1014.86 1014.98 1015.14 1015.32 1015.51 1015.68 1015.83 1015.94 1016.01 1016.04 1016.03 1016.00 1015.95 1015.89 1015.85 1015.83 1015.85 1015.91 1016.02 1016.18 1016.37 1016.60 1016.84 1017.10
1013.26 1013.39 1013.55 1013.73 1013.95 1014.17 1014.39 1014.59 1014.76 1014.88 1014.95 1014.96 1014.91 1014.83 1014.72 1014.60 1014.50 1014.42 1014.38 1014.38 1014.44 1014.54 1014.68 1014.84 1015.00 1015.16 1015.28 1015.37 1015.42 1015.42 1015.39 1015.32 1015.23 1015.14 1015.06 1015.01 1015.00 1015.04 1015.13 1015.27 1015.45 1015.67 1015.92 1016.18
Thickness
5764 5775 5782 5781 5781 5783 5771 5761 5752 5759 5764 5775 5784 5787 5788 5789 5788 5785 5780 5776 5774 5769 5766 5764 5761 5759 5758 5756 5754 5751 5747 5744 5742 5740 5738 5736 5734 5733 5732 5730 5729 5727 5725 5722
5759 5772 5774 5772 5778 5780 5780 5779 5773 5771 5769 5788 5791 5789 5785 5785 5785 5781 5778 5776 5774 5769 5765 5762 5759 5757 5755 5753 5751 5748 5744 5741 5739 5736 5734 5731 5729 5727 5726 5724 5722 5721 5719 5716
5733 5753 5757 5748 5769 5774 5775 5782 5779 5767 5775 5785 5780 5782 5782 5783 5782 5779 5777 5775 5772 5768 5764 5761 5759 5756 5752 5750 5748 5744 5740 5737 5735 5732 5728 5726 5724 5721 5719 5717 5715 5713 5711 5709
5721 5734 5720 5745 5778 5781 5775 5777 5783 5782 5783 5785 5783 5781 5784 5786 5781 5777 5775 5772 5769 5766 5762 5759 5756 5753 5750 5747 5743 5740 5735 5732 5730 5727 5723 5720 5717 5714 5712 5710 5708 5706 5704 5701
5704 5706 5719 5749 5771 5775 5766 5759 5775 5776 5777 5777 5779 5775 5770 5778 5780 5777 5773 5770 5766 5762 5759 5755 5751 5749 5745 5740 5737 5734 5730 5727 5724 5722 5718 5714 5710 5707 5705 5703 5701 5698 5696 5693
5699 5700 5701 5735 5768 5779 5764 5741 5766 5771 5771 5771 5771 5753 5754 5768 5772 5771 5768 5765 5761 5757 5752 5747 5744 5742 5737 5732 5729 5727 5725 5722 5719 5716 5712 5708 5705 5702 5698 5696 5693 5690 5686 5683
5692 5694 5708 5743 5764 5767 5732 5732 5760 5765 5766 5766 5761 5760 5761 5764 5763 5762 5759 5754 5751 5747 5741 5738 5736 5733 5728 5725 5722 5721 5719 5716 5712 5709 5705 5702 5698 5695 5691 5688 5684 5681 5677 5673
5683 5683 5696 5741 5748 5738 5735 5750 5755 5757 5758 5757 5756 5756 5755 5755 5753 5751 5748 5744 5741 5736 5730 5728 5727 5724 5720 5717 5716 5714 5711 5707 5704 5700 5697 5694 5690 5686 5682 5679 5675 5671 5666 5661
5689 5692 5712 5730 5734 5739 5743 5743 5746 5748 5750 5750 5746 5744 5744 5742 5741 5739 5738 5734 5730 5726 5720 5717 5716 5715 5711 5709 5708 5705 5701 5698 5694 5691 5688 5684 5681 5677 5673 5669 5666 5661 5657 5652
5685 5693 5706 5717 5726 5730 5734 5735 5739 5741 5741 5741 5737 5734 5732 5731 5729 5727 5725 5722 5718 5715 5710 5706 5705 5704 5702 5701 5699 5696 5691 5688 5685 5682 5678 5675 5672 5668 5665 5661 5657 5653 5649 5644
5675 5685 5695 5703 5710 5717 5722 5726 5727 5727 5729 5728 5726 5723 5721 5718 5716 5715 5713 5709 5707 5702 5699 5697 5695 5694 5692 5690 5689 5685 5682 5678 5675 5672 5669 5664 5660 5656 5654 5652 5651 5648 5643 5639
5665 5678 5682 5688 5700 5708 5709 5710 5712 5713 5712 5713 5714 5711 5709 5706 5703 5702 5699 5697 5694 5691 5688 5686 5685 5683 5681 5680 5678 5675 5671 5669 5666 5662 5659 5654 5649 5643 5639 5639 5638 5636 5634 5630
5673 5679 5682 5687 5692 5697 5698 5700 5701 5701 5700 5698 5697 5697 5695 5692 5690 5689 5687 5684 5682 5680 5678 5676 5674 5673 5671 5669 5668 5665 5662 5659 5656 5652 5649 5645 5641 5637 5630 5624 5623 5621 5619 5617
5672 5674 5673 5677 5680 5685 5688 5690 5689 5688 5687 5686 5685 5684 5682 5679 5677 5675 5673 5671 5669 5668 5665 5664 5663 5661 5659 5658 5656 5654 5652 5650 5647 5643 5639 5635 5631 5627 5623 5619 5613 5607 5604 5602
5663 5667 5667 5669 5672 5675 5676 5677 5675 5672 5671 5671 5671 5670 5669 5666 5663 5662 5660 5659 5657 5655 5654 5651 5649 5648 5647 5646 5645 5643 5641 5639 5635 5632 5628 5624 5620 5616 5612 5608 5604 5598 5593 5589
5653 5657 5659 5659 5660 5662 5664 5663 5661 5659 5658 5657 5657 5656 5655 5653 5650 5648 5647 5646 5644 5642 5640 5638 5637 5636 5635 5634 5633 5632 5630 5629 5625 5621 5617 5613 5609 5605 5601 5596 5593 5589 5585 5581
5641 5643 5645 5646 5648 5649 5652 5652 5651 5648 5647 5645 5644 5643 5641 5639 5637 5634 5633 5632 5631 5629 5627 5626 5625 5624 5623 5623 5622 5621 5619 5616 5614 5610 5607 5603 5599 5595 5591 5587 5584 5580 5576 5573
5641 5643 5644 5643 5642 5641 5641 5642 5641 5638 5636 5635 5634 5632 5630 5628 5625 5623 5621 5620 5619 5617 5615 5614 5613 5612 5611 5611 5610 5608 5606 5604 5601 5599 5595 5592 5589 5585 5581 5578 5575 5571 5567 5564
5635 5636 5637 5637 5636 5635 5634 5632 5630 5629 5627 5625 5623 5621 5619 5617 5614 5612 5611 5610 5608 5606 5604 5603 5602 5601 5600 5599 5598 5596 5594 5592 5589 5587 5584 5581 5578 5576 5572 5569 5566 5563 5559 5556
5626 5628 5629 5628 5628 5627 5625 5623 5621 5619 5617 5616 5614 5611 5608 5606 5604 5603 5601 5599 5597 5596 5595 5593 5592 5591 5589 5588 5588 5586 5584 5582 5579 5577 5575 5573 5570 5567 5564 5562 5559 5556 5553 5550
5615 5617 5618 5618 5618 5617 5616 5614 5612 5609 5607 5606 5604 5602 5599 5597 5595 5593 5591 5589 5587 5587 5586 5584 5583 5582 5581 5580 5579 5577 5576 5574 5572 5570 5568 5566 5563 5560 5558 5555 5553 5550 5547 5544
5605 5606 5607 5608 5607 5605 5604 5603 5602 5600 5598 5596 5595 5593 5590 5587 5585 5584 5583 5581 5580 5579 5578 5577 5576 5575 5575 5574 5572 5571 5569 5568 5566 5564 5562 5560 5558 5555 5553 5550 5547 5544 5541 5538
5596 5597 5597 5597 5597 5595 5593 5593 5592 5591 5589 5588 5586 5584 5582 5580 5579 5577 5575 5574 5574 5573 5572 5571 5570 5570 5569 5568 5567 5566 5565 5563 5561 5560 5558 5556 5554 5552 5549 5546 5543 5540 5536 5533
5586 5587 5587 5587 5587 5586 5584 5583 5583 5582 5581 5579 5578 5577 5575 5573 5571 5571 5571 5570 5569 5567 5566 5565 5565 5565 5565 5564 5563 5561 5560 5559 5557 5556 5554 5552 5550 5548 5545 5542 5539 5536 5532 5529
5578 5578 5578 5578 5578 5577 5576 5576 5575 5574 5573 5571 5571 5570 5569 5569 5568 5566 5566 5565 5564 5563 5561 5561 5561 5561 5561 5560 5559 5557 5556 5555 5554 5552 5550 5548 5546 5543 5541 5538 5535 5531 5528 5525
5572 5571 5571 5572 5572 5571 5571 5571 5569 5568 5568 5566 5565 5565 5565 5565 5564 5562 5561 5561 5560 5559 5558 5557 5557 5557 5556 5555 5555 5554 5552 5551 5549 5548 5546 5544 5541 5539 5536 5533 5530 5527 5524 5521
5567 5566 5566 5566 5567 5567 5567 5567 5566 5564 5564 5563 5562 5561 5562 5561 5560 5559 5558 5557 5556 5555 5554 5553 5553 5552 5552 5551 5550 5549 5548 5546 5545 5543 5541 5539 5537 5534 5531 5529 5526 5523 5520 5517